This is the latest recevied weather packets stored in our database for station/object SV4JYD-13. If no packets are shown the sender has not sent any weather packets the latest 10 day(s).
| Time | Temp. | Humidity | Pressure | Rain* | Wind** | Luminosity | Snow |
|---|---|---|---|---|---|---|---|
| 1777966298 | 20° C | 51% | 1018 hPa | 0 mm | - | - | - |
| 1777965398 | 20° C | 55% | 1018 hPa | 0 mm | - | - | - |
| 1777964498 | 19.44° C | 52% | 1018 hPa | 0 mm | - | - | - |
| 1777963597 | 18.33° C | 58% | 1018 hPa | 0 mm | - | - | - |
| 1777962697 | 17.22° C | 67% | 1018 hPa | 0 mm | - | - | - |
| 1777961797 | 17.22° C | 67% | 1018 hPa | 0 mm | - | - | - |
| 1777960896 | 12.78° C | 84% | 1018 hPa | 0 mm | - | - | - |
| 1777959096 | 13.33° C | 80% | 1018 hPa | 0 mm | - | - | - |
| 1777958196 | 12.78° C | 81% | 1018 hPa | 0 mm | - | - | - |
| 1777957296 | 12.22° C | 81% | 1018 hPa | 0 mm | - | - | - |
| 1777956395 | 11.67° C | 79% | 1018 hPa | 0 mm | - | - | - |
| 1777955495 | 11.11° C | 86% | 1018 hPa | 0 mm | - | - | - |
| 1777954595 | 10.56° C | 89% | 1018 hPa | 0 mm | - | - | - |
| 1777953695 | 8.33° C | 10% | - | 0 mm | - | - | - |
| 1777952794 | 7.78° C | 10% | - | 0 mm | - | - | - |
| 1777951894 | 10.56° C | 85% | 1018 hPa | 0 mm | - | - | - |
| 1777950994 | 11.11° C | 81% | 1018 hPa | 0 mm | - | - | - |
| 1777950094 | 11.11° C | 78% | 1018 hPa | 0 mm | - | - | - |
| 1777949193 | 11.11° C | 82% | 1018 hPa | 0 mm | - | - | - |
| 1777948293 | 11.11° C | 81% | 1018 hPa | 0 mm | - | - | - |
| 1777947393 | 11.11° C | 80% | 1018 hPa | 0 mm | - | - | - |
| 1777946493 | 11.11° C | 75% | 1018 hPa | 0 mm | - | - | - |
| 1777945593 | 11.67° C | 71% | 1018 hPa | 0 mm | - | - | - |
| 1777944692 | 11.67° C | 71% | 1018 hPa | 0 mm | - | - | - |
| 1777943792 | 11.67° C | 70% | 1018 hPa | 0 mm | - | - | - |
* Rain latest hour (hover to see other rain measurements)
** Current wind speed in m/s (hover to see current wind gust speed)